Weather in Vereschagino

Russia / Perm Krai     58°04′47″N   54°39′29″E
temp.,
°C
wind,
m/s
gust,
m/s
humid.,
%
clouds,
%
prec.,
mm/h
press.,
hPa
HPBL,
m
28 february, sun
sun2823:00−14e51094100 0.4 1008535
02:00−17ene4994100 0.1 1008421
05:00−18ene4995100 0.3 1008438
08:00−18ene4995100 0.3 1008448
11:00−17ene4892100 0.3 1009484
14:00−15ne4789100 0.1 1009582
17:00−14ne4789100 0.1 1011595
20:00−17ne389597 0.1 1012255
1 march, mon
mon123:00−20ne369874 0.1 1014127
02:00−21nne349815 0.0 101674
05:00−22nne349828 0.0 101884
08:00−23nne239978 0.0 101955
11:00−18nne249371 0.0 1020218
14:00−13ne128485 0.0 1019408
17:00−12nnw118593 0.0 1018381
20:00−17s229558 0.0 101720
2 march, tue
tue223:00−19ssw339834 0.0 101672
02:00−18ssw499780 0.0 1014212
05:00−17ssw5109389 0.0 1011336
08:00−17s61395100 0.1 1008357
11:00−16s61293100 0.4 1006405
14:00−13s61192100 0.4 1004524
17:00−12s51092100 0.9 1003596
20:00−12s41094100 0.4 1002537
3 march, wed
wed323:00−11s3995100 1.0 1001454
02:00−11s2796100 0.8 1000330
05:00−12sse2496100 1.1 1000147
08:00−11se1297100 0.6 99988
11:00−9se0092100 1.1 1000219
14:00−7n2288100 0.3 1000445
17:00−7nnw2490100 0.5 1000440
20:00−9nnw1196100 0.1 100121
4 march, thu
thu423:00−7nnw41194100 0.6 1002599
02:00−9nnw41093100 0.2 1003450
05:00−15nw379691 0.3 1004145
08:00−16nw379766 0.0 1005135
11:00−11nw369375 0.1 1006309
14:00−7wnw358593 0.0 1006736
17:00−7w358597 0.1 1006749
20:00−12sw359454 0.0 100698